カタログに戻る

NOAA 16 DEB

運用中SSO
NORAD 41269·DEBRIS·🇺🇸 United States

打ち上げ Sep 21, 2000 から Vandenberg Space Force Base

Loading…

次のパス (今後24時間)

TLE

最新Source: Space-Track

元期: Sep 14, 2026, 14:11 UTC

1 41269U 00055FV  26257.59143824  .00005201  00000-0  17100-2 0  9999
2 41269  98.9398  26.0529 0017865 291.1522  68.7754 14.38611248554002

AllMySatでNOAA 16 DEBをリアルタイム追跡

Download on the App Store